Regional Weather Roundup
Issued by NWS

Home | Current Version | Previous Version | Graphics & Text | Print | Product List | Glossary On
Versions: 1 2 3 4 5 6 7 8 9 10 11 12 13 14 15 16 17 18 19 20 21 22 23 24 25 26 27 28 29 30 31 32 33 34 35 36 37 38 39 40 41 42 43 44 45 46 47 48 49 50
923
ASUS43 KIND 142209
RWRIN

WEATHER ROUNDUP FOR INDIANA
NATIONAL WEATHER SERVICE INDIANAPOLIS IN
500 PM EST SUN FEB 14 2016

NOTE: "FAIR" INDICATES FEW OR NO CLOUDS BELOW 12,000 FEET WITH NO
SIGNIFICANT WEATHER AND/OR OBSTRUCTIONS TO VISIBILITY.

* - STATION DOES NOT REPORT WEATHER SUCH AS PRECIPITATION OR FOG.

+ - STATION NOT QUALITY CONTROLLED BY THE NATIONAL WEATHER SERVICE.
    USE DATA WITH CAUTION...ESPECIALLY DEWPOINT AND RELATIVE
    HUMIDITY OBSERVATIONS.

INZ001>003-010>013-019-020-142300-
NORTHWEST INDIANA

CITY           SKY/WX    TMP DP  RH WIND       PRES   REMARKS
GARY /AIRPORT/ LGT SNOW  19  10  68 E14G28    30.14F WCI   6
KNOX *+        CLOUDY    18  12  79 E15       30.16F WCI   3
LA PORTE +     LGT SNOW  17  13  85 SE13      30.16S WCI   4
MICHIGAN CITY+ LGT SNOW  18  12  79 E7G16     30.16F WCI   8
MONTICELLO +   LGT SNOW  18  11  74 E9        30.13F WCI   7
RENSSELAER +   LGT SNOW  19  14  79 E16G23    30.12F WCI   5
VALPARAISO     LGT SNOW  16  12  84 E15G23    30.14F WCI   1

$$

LMZ046-743>745-142300-
SOUTHERN LAKE MICHIGAN

STATION/POSITION TIME  TEMP    WIND        PRES    WAVE
                       AIR SEA DIR/SP/G            HT
                 (UTC) (F)     (DEG/KT/KT) (MB)    (FT)
BURNS HARBOR     2100   16     100/ 12/ 17 1021.3F
MICHIGAN CITY    2100   15      90/ 10/ 13   N/A

$$

INZ004-005-014>016-021>024-142300-
NORTH CENTRAL INDIANA

CITY           SKY/WX    TMP DP  RH WIND       PRES   REMARKS
ELKHART        LGT SNOW  18  10  73 SE17        N/A  WCI   2
GOSHEN         LGT SNOW  16  10  77 SE13      30.18F WCI   2
LOGANSPORT +   LGT SNOW  18  12  79 E16       30.16F WCI   3
PERU/GRISSOM   LGT SNOW  17  14  86 SE15      30.13F FOG     WCI   2
ROCHESTER +    LGT SNOW  19  12  73 E14       30.16F VSB 3/4 WCI   6
SOUTH BEND     LGT SNOW  15  10  80 E20G25    30.17F WCI  -2
WARSAW +       LGT SNOW  18  12  79 E13       30.18S WCI   4

$$

INZ006>009-017-018-025>027-142300-
NORTHEAST INDIANA

CITY           SKY/WX    TMP DP  RH WIND       PRES   REMARKS
ANGOLA *+      CLOUDY    16   7  67 SE9       30.20F WCI   4
AUBURN +       LGT SNOW  19   9  63 SE6       30.22S WCI  11
FORT WAYNE     LGT SNOW  17  11  77 E15       30.22S VSB 1   WCI   2
HUNTINGTON +   LGT SNOW  16  10  77 E10       30.19F VSB 1   WCI   4

$$

INZ028-029-035-036-043>045-051>053-142300-
WEST CENTRAL INDIANA

CITY           SKY/WX    TMP DP  RH WIND       PRES   REMARKS
CRAWFORDSVL +  LGT SNOW  18  11  75 E14       30.11R WCI   4
GREENCASTLE +  LGT SNOW  19  12  73 E12       30.10F WCI   7
LAFAYETTE      CLOUDY    19  14  81 SE15      30.12F HAZE    WCI   5
TERRE HAUTE    CLOUDY    20  15  81 SE12      30.10S WCI   8

$$

INZ030>032-037>040-046>048-054>057-064-065-142300-
CENTRAL INDIANA

CITY           SKY/WX    TMP DP  RH WIND       PRES   REMARKS
COLUMBUS       LGT SNOW  18  18 100 SE10      30.15F VSB 3/4 WCI   6
FISHERS *+     CLOUDY    18  16  93 E7        30.14F VSB 1   WCI   8
FRANKFORT +    LGT SNOW  19  10  69 E17       30.13F WCI   3
GREENWOOD *+   CLOUDY    19  16  86 E9        30.15R VSB 1/2 WCI   9
INDIANAPOLIS   SNOW      18  14  84 E17       30.11F VSB 1/2 WCI   3
-EAGLE CREEK   LGT SNOW  18  14  84 E14       30.12F VSB 3/4 WCI   4
KOKOMO *+      CLOUDY    18  10  73 SE16G25   30.15F WCI   3
MARION +       LGT SNOW  17   8  68 E10       30.17F VSB 1   WCI   4
MT COMFORT *+  CLOUDY    18  14  86 SE8G18    30.15S VSB 1   WCI   7
SHELBYVILLE    SNOW      19  14  81 E10       30.15R VSB 1/2 WCI   7
ZIONSVILLE +   LGT SNOW  18  14  86 E14       30.13F VSB 1   WCI   4

$$

INZ033-034-041-042-049-050-058-059-142300-
EAST CENTRAL INDIANA

CITY           SKY/WX    TMP DP  RH WIND       PRES   REMARKS
MUNCIE         SNOW      17  11  77 SE15      30.17R VSB 1/2 WCI   2

$$

INZ060-061-067>069-081>083-085>088-142300-
SOUTHWEST INDIANA

CITY           SKY/WX    TMP DP  RH WIND       PRES   REMARKS
EVANSVILLE     LGT SNOW  25  20  81 SE8       30.08F WCI  16
HUNTINGBURG *+ CLOUDY    21  18  86 SE12      30.09F WCI   9
WASHINGTON +   CLOUDY    22  17  82 SE20      30.09F WCI   6

$$

INZ062-063-066-070>080-084-089>092-142300-
SOUTH CENTRAL AND SOUTHEAST INDIANA

CITY           SKY/WX    TMP DP  RH WIND       PRES   REMARKS
BLOOMINGTON    LGT SNOW  19  16  88 SE14      30.09R FOG     WCI   6
MADISON *+     CLOUDY    21  18  86 E9        30.15F VSB 3/4 WCI  11
NORTH VERNON + LGT SNOW  19  16  86 E8G16     30.12F VSB 3/4 WCI   9
SEYMOUR +      LGT SNOW  21  18  86 SE8       30.13F WCI  12

$$





USA.gov is the U.S. government's official web portal to all federal, state and local government web resources and services.